TimeMST,TemperatureF,Dew PointF,Humidity,Sea Level PressureIn,VisibilityMPH,Wind Direction,Wind SpeedMPH,Gust SpeedMPH,PrecipitationIn,Events,Conditions,WindDirDegrees,DateUTC
12:51 AM,24.1,21.9,91,29.91,10.0,Calm,Calm,-,N/A,,Overcast,0,2013-01-27 07:51:00
1:51 AM,23.0,21.0,92,29.91,10.0,WNW,3.5,-,N/A,,Clear,300,2013-01-27 08:51:00
2:51 AM,21.0,18.0,88,29.91,10.0,NW,3.5,-,N/A,,Clear,320,2013-01-27 09:51:00
3:51 AM,16.0,15.1,96,29.94,10.0,Calm,Calm,-,N/A,,Clear,0,2013-01-27 10:51:00
4:51 AM,17.1,15.1,92,29.95,10.0,NNW,3.5,-,N/A,,Clear,340,2013-01-27 11:51:00
5:51 AM,14.0,12.0,92,29.96,10.0,NW,5.8,-,N/A,,Clear,320,2013-01-27 12:51:00
6:51 AM,17.1,12.9,84,29.96,10.0,NNE,5.8,-,N/A,,Clear,20,2013-01-27 13:51:00
7:51 AM,12.9,10.0,88,29.98,10.0,NNW,4.6,-,N/A,,Clear,340,2013-01-27 14:51:00
8:51 AM,14.0,10.9,88,29.99,10.0,North,3.5,-,N/A,,Clear,350,2013-01-27 15:51:00
9:51 AM,17.1,14.0,88,29.98,10.0,NNW,4.6,-,N/A,,Clear,340,2013-01-27 16:51:00
11:51 AM,28.0,15.1,58,29.96,10.0,North,6.9,-,N/A,,Scattered Clouds,350,2013-01-27 18:51:00
12:51 PM,27.0,15.1,61,29.94,9.0,NNW,5.8,-,0.00,,Overcast,340,2013-01-27 19:51:00
1:51 PM,27.0,15.1,61,29.94,10.0,NW,5.8,-,N/A,,Overcast,310,2013-01-27 20:51:00
2:51 PM,27.0,16.0,63,29.93,7.0,NNW,6.9,-,0.00,Snow,Light Snow,330,2013-01-27 21:51:00
3:51 PM,27.0,18.0,69,29.96,6.0,WSW,6.9,-,0.01,Snow,Light Snow,240,2013-01-27 22:51:00
4:09 PM,24.8,17.6,74,29.84,2.0,West,8.1,-,0.00,Snow,Light Snow,280,2013-01-27 23:09:00
4:15 PM,24.8,17.6,74,29.84,1.0,West,6.9,-,0.00,Snow,Light Snow,280,2013-01-27 23:15:00
4:31 PM,23.0,19.4,86,29.85,1.2,WSW,5.8,-,0.00,Snow,Light Snow,240,2013-01-27 23:31:00
4:39 PM,23.0,19.4,86,29.85,2.5,SSW,4.6,-,0.00,Snow,Light Snow,200,2013-01-27 23:39:00
4:45 PM,23.0,19.4,86,29.85,7.0,South,4.6,-,0.00,Snow,Light Snow,180,2013-01-27 23:45:00
4:51 PM,23.0,19.0,85,29.99,7.0,Calm,Calm,-,0.00,Snow,Light Snow,0,2013-01-27 23:51:00
5:12 PM,24.8,19.4,80,29.85,2.5,SW,5.8,-,0.00,Snow,Light Snow,230,2013-01-28 00:12:00
5:19 PM,24.8,19.4,80,29.85,1.5,SW,3.5,-,0.00,Snow,Light Snow,230,2013-01-28 00:19:00
5:33 PM,23.0,17.6,80,29.85,4.0,SSW,3.5,-,0.00,Snow,Light Snow,200,2013-01-28 00:33:00
5:40 PM,21.2,17.6,86,29.85,9.0,Calm,Calm,-,0.00,,Mostly Cloudy,0,2013-01-28 00:40:00
5:51 PM,23.0,17.1,78,30.00,10.0,Calm,Calm,-,0.00,,Overcast,0,2013-01-28 00:51:00
6:51 PM,19.0,16.0,88,30.02,10.0,Calm,Calm,-,N/A,,Scattered Clouds,0,2013-01-28 01:51:00
7:51 PM,19.9,17.1,89,30.03,10.0,ENE,3.5,-,N/A,,Overcast,60,2013-01-28 02:51:00
8:51 PM,17.1,14.0,88,30.04,10.0,NNE,3.5,-,N/A,,Scattered Clouds,20,2013-01-28 03:51:00
9:27 PM,14.0,12.2,93,29.87,10.0,Calm,Calm,-,N/A,,Mostly Cloudy,0,2013-01-28 04:27:00
9:51 PM,17.1,14.0,88,30.04,10.0,Calm,Calm,-,N/A,,Mostly Cloudy,0,2013-01-28 04:51:00
10:23 PM,17.6,14.0,86,29.87,10.0,Calm,Calm,-,N/A,,Overcast,0,2013-01-28 05:23:00
10:51 PM,17.1,14.0,88,30.00,10.0,ENE,4.6,-,N/A,,Overcast,60,2013-01-28 05:51:00
11:51 PM,14.0,10.9,88,30.01,10.0,NE,3.5,-,N/A,,Overcast,40,2013-01-28 06:51:00